Location: Bottens
(46.6171°N, 6.6605°E)
Time: 07:55:32
(UTC+00:00)

Cosmos 1825 - Pass Details

Date: 24 October 2021
Orbit: 501 x 504 km, 82.5° (Epoch: 28 November)

Event Time Altitude Azimuth Distance (km) Brightness Sun altitude
Rises 19:31:13 0° 339° (NNW) 2,608 6.3 -31.4°
Reaches altitude 10° 19:33:35 10° 326° (NW) 1,718 5.4 -31.8°
Enters shadow 19:34:34 16° 316° (NW) 1,405 5.0 -32.0°
